TimeMDT,TemperatureF,Dew PointF,Humidity,Sea Level PressureIn,VisibilityMPH,Wind Direction,Wind SpeedMPH,Gust SpeedMPH,PrecipitationIn,Events,Conditions,WindDirDegrees,DateUTC
12:55 AM,56.7,33.8,42,30.09,10.0,Calm,Calm,-,N/A,,Clear,0,2012-09-30 06:55:00
1:55 AM,54.3,33.8,46,30.09,10.0,Calm,Calm,-,N/A,,Clear,0,2012-09-30 07:55:00
2:55 AM,57.0,31.6,38,30.09,10.0,NNW,6.9,-,N/A,,Clear,330,2012-09-30 08:55:00
3:55 AM,51.8,30.7,45,30.10,10.0,WNW,3.5,-,N/A,,Clear,300,2012-09-30 09:55:00
4:55 AM,52.5,31.6,45,30.12,10.0,North,4.6,-,N/A,,Clear,350,2012-09-30 10:55:00
5:55 AM,51.4,32.0,47,30.12,10.0,NNW,8.1,-,N/A,,Clear,330,2012-09-30 11:55:00
6:55 AM,49.5,36.1,60,30.15,10.0,WNW,3.5,-,N/A,,Clear,290,2012-09-30 12:55:00
7:55 AM,49.5,36.1,60,30.18,10.0,SSW,4.6,-,N/A,,Clear,200,2012-09-30 13:55:00
8:55 AM,56.1,38.7,52,30.20,10.0,West,4.6,-,N/A,,Clear,260,2012-09-30 14:55:00
9:55 AM,64.0,43.0,46,30.20,10.0,NW,10.4,-,N/A,,Clear,320,2012-09-30 15:55:00
10:55 AM,70.5,42.8,37,30.21,10.0,NW,11.5,-,N/A,,Clear,310,2012-09-30 16:55:00
11:55 AM,75.0,42.1,31,30.20,10.0,NW,10.4,-,N/A,,Clear,320,2012-09-30 17:55:00
12:55 PM,77.7,40.5,26,30.19,10.0,NNW,10.4,-,N/A,,Clear,330,2012-09-30 18:55:00
1:55 PM,79.7,39.2,23,30.18,10.0,NNW,10.4,21.9,N/A,,Clear,330,2012-09-30 19:55:00
2:55 PM,81.1,38.5,22,30.15,10.0,NW,18.4,21.9,N/A,,Clear,310,2012-09-30 20:55:00
3:55 PM,81.7,37.9,21,30.14,10.0,NW,16.1,-,N/A,,Clear,320,2012-09-30 21:55:00
4:55 PM,81.7,37.2,20,30.12,10.0,NNW,18.4,-,N/A,,Clear,330,2012-09-30 22:55:00
7:55 PM,73.0,21.9,15,30.15,10.0,NNW,15.0,-,N/A,,Clear,340,2012-10-01 01:55:00
8:55 PM,66.9,28.9,24,30.16,10.0,West,10.4,-,N/A,,Clear,270,2012-10-01 02:55:00
9:55 PM,61.3,28.4,29,30.18,10.0,NNW,6.9,-,N/A,,Clear,330,2012-10-01 03:55:00
10:55 PM,62.1,30.6,31,30.17,10.0,WNW,11.5,-,N/A,,Clear,300,2012-10-01 04:55:00
11:55 PM,58.8,32.5,37,30.16,10.0,West,8.1,-,N/A,,Clear,270,2012-10-01 05:55:00